EW7966 Weather Reports


time (UTC)temp
F
wind
direction
speed
knots
gust
knots
rain 1hr
in
rain 24hr
in
rain mn
in
humidity
%
barometer
mb
20260903070008 58 211 1.7 2.6 0.00 0.00 0.00 66 1017.6
20260903070005 58 211 1.7 2.6 0.00 0.00 0.00 66 1002.2
20260903065505 58 211 0.0 2.6 0.00 0.00 0.00 67 1017.6
20260903065006 58 211 0.9 3.5 0.00 0.00 0.00 67 1017.6
20260903064505 58 211 2.6 3.5 0.00 0.00 0.00 66 1017.6
20260903064503 58 211 2.6 3.5 0.00 0.00 0.00 66 1002.1
20260903064006 58 211 1.7 5.2 0.00 0.00 0.00 67 1017.7
20260903063506 58 222 3.5 5.2 0.00 0.00 0.00 68 1017.8
20260903063006 57 223 3.5 6.1 0.00 0.00 0.00 69 1018.0
20260903063003 57 223 2.6 6.1 0.00 0.00 0.00 69 1002.5
20260903062505 56 222 2.6 4.3 0.00 0.00 0.00 70 1017.9
20260903062006 56 223 2.6 4.3 0.00 0.00 0.00 70 1017.8
20260903061507 56 223 2.6 4.3 0.00 0.00 0.00 69 1002.3
20260903061007 57 103 1.7 6.1 0.00 0.00 0.00 67 1017.5
20260903060506 57 103 3.5 7.0 0.00 0.00 0.00 67 1017.5
20260903060008 58 82 2.6 6.1 0.00 0.00 0.00 65 1002.1
20260903055505 58 294 2.6 4.3 0.00 0.00 0.00 64 1017.7
20260903055005 59 294 3.5 4.3 0.00 0.00 0.00 64 1017.8
20260903054502 59 294 2.6 4.3 0.00 0.00 0.00 63 1002.3
20260903053504 60 294 0.9 2.6 0.00 0.00 0.00 62 1017.6
20260903053005 60 294 0.9 2.6 0.00 0.00 0.00 62 1017.6
20260903053003 60 294 0.9 2.6 0.00 0.00 0.00 62 1002.1
20260903052006 60 294 0.9 1.7 0.00 0.00 0.00 62 1017.7
20260903051505 60 294 0.0 1.7 0.00 0.00 0.00 62 1017.6
20260903051502 60 294 0.0 1.7 0.00 0.00 0.00 62 1002.0
20260903051006 60 294 0.0 1.7 0.00 0.00 0.00 61 1017.6
20260903050500 61 294 0.9 1.7 0.00 0.00 0.00 59 1017.6
20260903050006 61 294 0.0 0.9 0.00 0.00 0.00 60 1017.6
20260903045506 62 294 0.0 0.9 0.00 0.00 0.00 59 1017.8
20260903045004 62 294 0.0 2.6 0.00 0.00 0.00 59 1017.9
20260903044504 62 294 0.0 2.6 0.00 0.00 0.00 59 1018.0
20260903044005 62 294 0.9 3.5 0.00 0.00 0.00 59 1018.0
20260903043006 62 294 4.3 7.0 0.00 0.00 0.00 59 1002.5
20260903042504 62 310 2.6 3.5 0.00 0.00 0.00 59 1017.9
20260903042006 63 9 0.9 4.3 0.00 0.00 0.00 58 1017.9
20260903041558 63 5 0.0 4.3 0.00 0.00 0.00 57 1002.1
20260903041005 64 23 2.6 4.3 0.00 0.00 0.00 56 1017.7
20260903040504 65 23 2.6 4.3 0.00 0.00 0.00 54 1017.6
20260903040004 66 5 0.9 4.3 0.00 0.00 0.00 53 1001.8
20260903034504 68 343 0.9 4.3 0.00 0.00 0.00 48 1017.6
20260903034502 68 343 0.9 4.3 0.00 0.00 0.00 48 1001.9
20260903034006 68 332 1.7 9.6 0.00 0.00 0.00 47 1017.8
20260903033503 69 5 0.9 10.4 0.00 0.00 0.00 46 1017.8
20260903033004 69 5 2.6 12.2 0.00 0.00 0.00 45 1017.7
20260903033002 69 5 2.6 12.2 0.00 0.00 0.00 45 1001.9
20260903032504 69 319 5.2 12.2 0.00 0.00 0.00 45 1017.5
20260903032005 70 311 7.0 13.9 0.00 0.00 0.00 43 1017.4
20260903031505 71 329 5.2 17.4 0.00 0.00 0.00 41 1001.5
20260903031008 72 301 10.4 17.4 0.00 0.00 0.00 37 1017.0
20260903030504 73 290 8.7 12.2 0.00 0.00 0.00 35 1016.9
20260903030003 73 213 0.9 2.6 0.00 0.00 0.00 32 1001.1
20260903025504 74 213 0.9 4.3 0.00 0.00 0.00 31 1016.7
20260903025005 74 213 2.6 4.3 0.00 0.00 0.00 30 1016.6
20260903024504 75 213 0.9 2.6 0.00 0.00 0.00 30 1016.5
20260903024005 75 213 1.7 3.5 0.00 0.00 0.00 29 1016.4
20260903023504 76 213 1.7 4.3 0.00 0.00 0.00 28 1016.3
20260903023003 76 213 0.9 6.1 0.00 0.00 0.00 28 1000.5
20260903022005 76 205 4.3 7.0 0.00 0.00 0.00 28 1016.1
20260903021503 75 302 2.6 7.0 0.00 0.00 0.00 29 1000.2
20260903021006 74 204 3.5 6.1 0.00 0.00 0.00 31 1015.9
20260903020007 74 273 1.7 3.5 0.00 0.00 0.00 32 1015.9
20260903020003 74 273 1.7 3.5 0.00 0.00 0.00 32 1000.2
20260903015504 74 302 1.7 5.2 0.00 0.00 0.00 32 1015.8
20260903015006 74 201 3.5 7.0 0.00 0.00 0.00 30 1015.6
20260903014504 73 192 3.5 7.0 0.00 0.00 0.00 32 1015.4
20260903014502 73 192 3.5 7.0 0.00 0.00 0.00 32 999.6
20260903014004 71 168 3.5 6.1 0.00 0.00 0.00 34 1015.3
20260903013505 72 129 0.0 2.6 0.00 0.00 0.00 37 1015.4
20260903013006 72 129 1.7 3.5 0.00 0.00 0.00 33 1015.4
20260903013002 72 129 0.9 3.5 0.00 0.00 0.00 33 999.5
20260903012504 73 129 0.9 3.5 0.00 0.00 0.00 32 1015.3
20260903012006 74 129 0.0 0.9 0.00 0.00 0.00 34 1015.3
20260903011503 75 129 0.0 1.7 0.00 0.00 0.00 35 999.4
20260903011007 75 129 0.9 3.5 0.00 0.00 0.00 32 1015.3
20260903010504 75 129 2.6 4.3 0.00 0.00 0.00 33 1015.3
20260903010007 76 129 3.5 7.0 0.00 0.00 0.00 32 1015.3
20260903010003 76 129 2.6 7.0 0.00 0.00 0.00 32 999.4
20260903005504 76 129 2.6 10.4 0.00 0.00 0.00 32 1015.4
20260903005006 77 120 6.1 12.2 0.00 0.00 0.00 31 1015.4
20260903004502 77 119 9.6 12.2 0.00 0.00 0.00 30 999.4
20260903004006 77 157 6.1 11.3 0.00 0.00 0.00 31 1015.2
20260903003505 78 136 7.0 13.0 0.00 0.00 0.00 31 1015.2
20260903003005 79 104 7.8 13.0 0.00 0.00 0.00 30 1015.2
20260903003002 79 104 7.8 13.0 0.00 0.00 0.00 30 999.3
20260903002504 79 92 8.7 12.2 0.00 0.00 0.00 30 1015.2
20260903002005 79 93 8.7 14.8 0.00 0.00 0.00 30 1015.2
20260903001505 80 106 11.3 14.8 0.00 0.00 0.00 30 1015.2
20260903001502 80 106 10.4 14.8 0.00 0.00 0.00 30 999.3
20260903001001 80 105 9.6 14.8 0.00 0.00 0.00 29 1015.2
20260903000505 80 103 10.4 14.8 0.00 0.00 0.00 29 1015.3
20260903000007 80 104 9.6 15.6 0.00 0.00 0.00 30 1015.3
20260903000004 80 104 8.7 15.6 0.00 0.00 0.00 30 999.4
20260902235504 80 115 12.2 16.5 0.00 0.00 0.00 30 1015.4
20260902235005 80 87 10.4 16.5 0.00 0.00 0.00 29 1015.4
20260902234504 81 107 9.6 15.6 0.00 0.00 0.00 29 1015.4
20260902234502 81 107 8.7 15.6 0.00 0.00 0.00 29 999.5
20260902234005 81 130 10.4 15.6 0.00 0.00 0.00 27 1015.4
20260902233504 81 107 10.4 14.8 0.00 0.00 0.00 29 1015.5
20260902233002 81 120 8.7 14.8 0.00 0.00 0.00 28 999.7
20260902232505 81 109 8.7 15.6 0.00 0.00 0.00 27 1015.4
20260902232006 82 128 11.3 15.6 0.00 0.00 0.00 27 1015.6
20260902231505 81 98 9.6 15.6 0.00 0.00 0.00 27 1015.6
20260902231005 81 115 9.6 14.8 0.00 0.00 0.00 29 1015.7
20260902230504 81 90 9.6 16.5 0.00 0.00 0.00 29 1015.6
20260902230003 80 117 8.7 18.2 0.00 0.00 0.00 31 999.9
20260902225504 81 110 11.3 15.6 0.00 0.00 0.00 30 1015.8
20260902225005 81 96 8.7 13.9 0.00 0.00 0.00 32 1015.8
20260902224505 81 102 11.3 18.2 0.00 0.00 0.00 30 1015.9
20260902224503 81 102 10.4 18.2 0.00 0.00 0.00 30 1000.1
20260902223504 81 84 7.8 15.6 0.00 0.00 0.00 30 1016.0
20260902223103 81 69 7.8 17.4 0.00 0.00 0.00 30 1000.3
20260902222505 81 113 12.2 17.4 0.00 0.00 0.00 30 1016.2
20260902222006 80 110 7.0 12.2 0.00 0.00 0.00 30 1016.3
20260902221506 80 65 9.6 12.2 0.00 0.00 0.00 30 1016.3
20260902221503 80 65 8.7 12.2 0.00 0.00 0.00 30 1000.4
20260902221004 79 75 7.8 12.2 0.00 0.00 0.00 31 1016.4
20260902220503 80 88 7.8 16.5 0.00 0.00 0.00 30 1016.5
20260902220006 81 126 10.4 16.5 0.00 0.00 0.00 27 1000.7
20260902215505 82 110 10.4 13.9 0.00 0.00 0.00 29 1016.5
20260902215006 81 62 7.8 13.0 0.00 0.00 0.00 29 1016.6
20260902214506 80 67 8.7 13.0 0.00 0.00 0.00 30 1016.7
20260902214502 80 67 8.7 13.0 0.00 0.00 0.00 30 1000.9
20260902214007 79 65 7.0 12.2 0.00 0.00 0.00 31 1016.8
20260902213504 79 80 7.8 15.6 0.00 0.00 0.00 30 1016.9
20260902213006 80 122 7.8 15.6 0.00 0.00 0.00 29 1016.9
20260902213004 80 122 7.8 15.6 0.00 0.00 0.00 29 1001.2
20260902212505 80 87 4.3 13.9 0.00 0.00 0.00 28 1016.9
20260902212005 80 126 6.1 13.9 0.00 0.00 0.00 30 1017.0
20260902211505 80 111 8.7 12.2 0.00 0.00 0.00 31 1001.4
20260902211001 79 86 7.8 11.3 0.00 0.00 0.00 32 1017.4
20260902210504 79 91 7.8 11.3 0.00 0.00 0.00 29 1017.4
20260902210006 79 75 6.1 11.3 0.00 0.00 0.00 31 1017.5
20260902205503 78 88 7.8 11.3 0.00 0.00 0.00 32 1017.6
20260902204505 77 85 4.3 11.3 0.00 0.00 0.00 32 1017.8
20260902204502 77 85 3.5 11.3 0.00 0.00 0.00 32 1002.0
20260902204005 77 109 4.3 11.3 0.00 0.00 0.00 32 1017.8
20260902203504 78 94 7.8 11.3 0.00 0.00 0.00 32 1017.9
20260902203003 78 94 6.1 12.2 0.00 0.00 0.00 30 1002.2
20260902202506 78 111 7.0 12.2 0.00 0.00 0.00 30 1018.0
20260902202005 78 82 6.1 10.4 0.00 0.00 0.00 31 1018.0
20260902201504 78 77 7.0 11.3 0.00 0.00 0.00 31 1018.0
20260902201502 78 77 6.1 11.3 0.00 0.00 0.00 31 1002.3
20260902200006 78 67 7.8 12.2 0.00 0.00 0.00 31 1018.2
20260902195503 78 77 6.1 12.2 0.00 0.00 0.00 29 1018.3
20260902195005 79 84 7.0 11.3 0.00 0.00 0.00 31 1018.2
20260902194504 79 40 3.5 9.6 0.00 0.00 0.00 29 1018.3
20260902194502 79 40 3.5 9.6 0.00 0.00 0.00 29 1002.6
20260902193505 79 119 5.2 11.3 0.00 0.00 0.00 29 1018.4
20260902193005 79 82 7.0 10.4 0.00 0.00 0.00 31 1018.3
20260902193002 79 82 7.0 10.4 0.00 0.00 0.00 31 1002.7
20260902192005 79 66 6.1 13.0 0.00 0.00 0.00 30 1018.5
20260902191504 79 42 6.1 11.3 0.00 0.00 0.00 31 1018.5
20260902191006 79 38 6.1 10.4 0.00 0.00 0.00 31 1018.7
20260902190504 79 86 6.1 10.4 0.00 0.00 0.00 31 1018.8
20260902190007 79 103 5.2 10.4 0.00 0.00 0.00 30 1018.9
20260902190003 79 103 5.2 10.4 0.00 0.00 0.00 30 1003.5
20260902185005 79 90 7.0 9.6 0.00 0.00 0.00 30 1019.1
20260902184602 79 40 4.3 12.2 0.00 0.00 0.00 29 1003.8
20260902184507 79 20 5.2 12.2 0.00 0.00 0.00 30 1003.8
20260902184505 79 20 6.1 12.2 0.00 0.00 0.00 30 1019.1
20260902184005 78 59 8.7 12.2 0.00 0.00 0.00 31 1019.2
20260902183504 78 74 1.7 7.0 0.00 0.00 0.00 31 1019.3
20260902183006 77 122 2.6 8.7 0.00 0.00 0.00 31 1019.4
20260902183003 77 122 2.6 8.7 0.00 0.00 0.00 31 1004.1
20260902182504 77 89 6.1 9.6 0.00 0.00 0.00 32 1019.4
20260902182005 78 87 7.0 9.6 0.00 0.00 0.00 31 1019.6
20260902181505 77 101 1.7 7.0 0.00 0.00 0.00 30 1019.7
20260902181502 77 101 0.9 7.0 0.00 0.00 0.00 30 1004.3
20260902181006 77 113 3.5 4.3 0.00 0.00 0.00 32 1019.7
20260902180504 77 127 1.7 9.6 0.00 0.00 0.00 30 1019.7
20260902180007 77 103 3.5 12.2 0.00 0.00 0.00 30 1019.8
20260902180005 77 103 2.6 12.2 0.00 0.00 0.00 30 1004.5
20260902175006 77 24 3.5 7.8 0.00 0.00 0.00 31 1019.9
20260902174502 77 14 3.5 8.7 0.00 0.00 0.00 32 1004.7
20260902174005 77 19 5.2 8.7 0.00 0.00 0.00 32 1020.1
20260902173006 76 75 3.5 7.0 0.00 0.00 0.00 35 1020.2
20260902173002 76 75 2.6 7.0 0.00 0.00 0.00 35 1004.9
20260902172504 76 78 2.6 7.0 0.00 0.00 0.00 35 1020.2
20260902172005 76 155 1.7 5.2 0.00 0.00 0.00 35 1020.2
20260902171504 76 88 3.5 8.7 0.00 0.00 0.00 34 1020.3
20260902171502 76 88 2.6 8.7 0.00 0.00 0.00 34 1005.0
20260902171000 76 136 6.1 8.7 0.00 0.00 0.00 34 1020.4
20260902170504 76 170 4.3 6.1 0.00 0.00 0.00 33 1020.4
20260902170006 76 15 0.9 5.2 0.00 0.00 0.00 33 1020.5
20260902170003 76 15 0.9 5.2 0.00 0.00 0.00 33 1005.2
20260902165505 75 48 3.5 7.0 0.00 0.00 0.00 34 1020.5
20260902165005 75 37 4.3 7.0 0.00 0.00 0.00 34 1020.4
20260902164504 76 69 3.5 7.0 0.00 0.00 0.00 34 1020.5
20260902164006 75 5 0.9 3.5 0.00 0.00 0.00 35 1020.5
20260902163503 75 360 1.7 4.3 0.00 0.00 0.00 35 1020.5
20260902163005 74 53 0.9 5.2 0.00 0.00 0.00 34 1020.5
20260902163002 74 53 0.9 5.2 0.00 0.00 0.00 34 1005.2
20260902162504 74 42 3.5 7.0 0.00 0.00 0.00 34 1020.5
20260902162005 74 50 4.3 7.0 0.00 0.00 0.00 35 1020.4
20260902161502 74 130 2.6 6.1 0.00 0.00 0.00 37 1005.2
20260902160503 74 43 2.6 8.7 0.00 0.00 0.00 36 1020.5
20260902160008 74 38 5.2 8.7 0.00 0.00 0.00 36 1020.5
20260902160004 74 38 4.3 8.7 0.00 0.00 0.00 36 1005.4
20260902155505 74 28 1.7 4.3 0.00 0.00 0.00 34 1020.5
20260902155005 74 327 0.9 3.5 0.00 0.00 0.00 35 1020.6
20260902154505 74 314 0.9 3.5 0.00 0.00 0.00 35 1005.6
20260902154005 74 34 1.7 2.6 0.00 0.00 0.00 37 1020.7
20260902153503 73 34 0.9 4.3 0.00 0.00 0.00 35 1020.8
20260902153005 73 34 1.7 4.3 0.00 0.00 0.00 36 1020.7
20260902153002 73 34 0.9 4.3 0.00 0.00 0.00 36 1005.7
20260902152505 73 17 1.7 4.3 0.00 0.00 0.00 35 1020.7
20260902152005 73 17 1.7 5.2 0.00 0.00 0.00 36 1020.7
20260902151504 73 17 2.6 5.2 0.00 0.00 0.00 37 1005.6
20260902151005 73 23 2.6 3.5 0.00 0.00 0.00 37 1020.7
20260902150505 73 23 1.7 2.6 0.00 0.00 0.00 39 1020.7
20260902150007 72 23 1.7 3.5 0.00 0.00 0.00 38 1020.6
20260902150002 72 23 0.9 3.5 0.00 0.00 0.00 38 1005.7
20260902145505 72 23 1.7 3.5 0.00 0.00 0.00 38 1020.5
20260902144506 71 23 0.9 2.6 0.00 0.00 0.00 44 1005.5
20260902144005 70 292 0.9 2.6 0.00 0.00 0.00 42 1020.5
20260902143504 69 257 0.9 1.7 0.00 0.00 0.00 46 1020.5
20260902143008 68 217 0.9 1.7 0.00 0.00 0.00 46 1020.5
20260902143005 68 217 0.9 1.7 0.00 0.00 0.00 46 1005.5
20260902142505 67 217 0.9 1.7 0.00 0.00 0.00 49 1020.5
20260902142005 67 217 0.9 1.7 0.00 0.00 0.00 51 1020.4
20260902141505 66 217 1.7 2.6 0.00 0.00 0.00 52 1020.4
20260902141503 66 217 0.9 2.6 0.00 0.00 0.00 52 1005.4
20260902141007 66 217 1.7 2.6 0.00 0.00 0.00 53 1020.4
20260902140504 66 217 0.9 1.7 0.00 0.00 0.00 54 1020.4
20260902140007 65 217 1.7 2.6 0.00 0.00 0.00 57 1020.3
20260902140003 65 217 0.9 2.6 0.00 0.00 0.00 57 1005.4
20260902135505 64 217 1.7 2.6 0.00 0.00 0.00 61 1020.4
20260902135005 63 217 0.0 0.0 0.00 0.00 0.00 61 1020.3
20260902134504 61 217 0.0 1.7 0.00 0.00 0.00 64 1005.4
20260902134005 60 217 0.9 1.7 0.00 0.00 0.00 65 1020.2
20260902133003 57 217 0.0 0.9 0.00 0.00 0.00 69 1005.3
20260902132504 57 217 0.0 2.6 0.00 0.00 0.00 70 1020.1
20260902132006 56 217 1.7 2.6 0.00 0.00 0.00 71 1020.0
20260902131503 55 202 1.7 2.6 0.00 0.00 0.00 73 1020.0
20260902131006 54 202 0.0 1.7 0.00 0.00 0.00 75 1019.9
20260902130505 53 202 0.9 1.7 0.00 0.00 0.00 75 1019.9
20260902130008 53 202 0.0 0.9 0.00 0.00 0.00 75 1019.8
20260902130002 53 202 0.0 0.9 0.00 0.00 0.00 75 1004.8
20260902125504 53 165 0.0 0.9 0.00 0.00 0.00 75 1019.8
20260902125005 53 161 0.0 1.7 0.00 0.00 0.00 74 1019.8
20260902124504 53 161 0.9 4.3 0.00 0.00 0.00 74 1019.7
20260902124502 53 161 0.0 4.3 0.00 0.00 0.00 74 1004.8
20260902124004 53 161 2.6 4.3 0.00 0.00 0.00 75 1019.6
20260902123505 53 161 1.7 1.7 0.00 0.00 0.00 75 1019.6
20260902123006 54 161 0.9 1.7 0.00 0.00 0.00 72 1019.5
20260902123002 54 161 0.9 1.7 0.00 0.00 0.00 72 1004.5
20260902122505 54 161 0.0 2.6 0.00 0.00 0.00 71 1019.4
20260902122004 55 161 0.9 4.3 0.00 0.00 0.00 71 1019.4
20260902121505 55 161 3.5 5.2 0.00 0.00 0.00 70 1019.4
20260902121502 55 161 3.5 5.2 0.00 0.00 0.00 70 1004.4
20260902121005 56 161 3.5 5.2 0.00 0.00 0.00 70 1019.2
20260902120504 55 161 2.6 4.3 0.00 0.00 0.00 70 1019.2
20260902120006 56 161 2.6 2.6 0.00 0.00 0.00 71 1019.2
20260902120002 56 161 1.7 2.6 0.00 0.00 0.00 71 1004.3
20260902115503 56 161 0.9 4.3 0.00 0.00 0.00 69 1019.1
20260902115005 56 161 0.9 4.3 0.00 0.00 0.00 69 1019.1
20260902114506 56 161 1.7 4.3 0.00 0.00 0.00 69 1004.1
20260902114006 56 161 1.7 3.5 0.00 0.00 0.00 70 1019.0
20260902113504 56 161 1.7 3.5 0.00 0.00 0.00 70 1019.0
20260902113105 56 161 0.9 4.3 0.00 0.00 0.00 70 1004.0
20260902113000 56 161 1.7 4.3 0.00 0.00 0.00 70 1018.9
20260902112505 56 161 2.6 4.3 0.00 0.00 0.00 70 1018.9
20260902111504 57 161 1.7 4.3 0.00 0.00 0.00 68 1019.0
20260902111501 57 161 0.9 4.3 0.00 0.00 0.00 68 1004.0
20260902110959 57 161 2.6 4.3 0.00 0.00 0.00 69 1019.0
20260902110503 57 161 1.7 4.3 0.00 0.00 0.00 69 1019.0
20260902110008 57 161 1.7 4.3 0.00 0.00 0.00 69 1018.9
20260902104504 57 161 0.9 3.5 0.00 0.00 0.00 70 1018.9
20260902104004 57 161 0.9 2.6 0.00 0.00 0.00 70 1018.9
20260902103504 57 161 1.7 2.6 0.00 0.00 0.00 71 1018.8
20260902103005 56 161 0.9 4.3 0.00 0.00 0.00 71 1018.8
20260902103002 56 161 0.9 4.3 0.00 0.00 0.00 71 1003.7
20260902102004 56 161 0.9 4.3 0.00 0.00 0.00 72 1018.8
20260902101503 56 161 1.7 4.3 0.00 0.00 0.00 72 1018.8
20260902100504 57 161 0.0 1.7 0.00 0.00 0.00 72 1018.9
20260902100006 57 161 0.0 2.6 0.00 0.00 0.00 71 1018.9
20260902100002 57 161 0.0 2.6 0.00 0.00 0.00 71 1003.8
20260902095504 57 161 0.0 2.6 0.00 0.00 0.00 72 1018.9
20260902095005 57 161 1.7 4.3 0.00 0.00 0.00 72 1018.8
20260902094505 57 161 0.9 2.6 0.00 0.00 0.00 72 1018.8
20260902094503 57 161 0.9 2.6 0.00 0.00 0.00 72 1003.6
20260902094004 58 161 0.9 2.6 0.00 0.00 0.00 71 1018.8
20260902093503 58 161 1.7 4.3 0.00 0.00 0.00 70 1018.8
20260902093006 58 161 2.6 4.3 0.00 0.00 0.00 70 1018.8
20260902093002 58 161 1.7 4.3 0.00 0.00 0.00 70 1003.6
20260902092504 59 161 2.6 4.3 0.00 0.00 0.00 69 1018.8
20260902091503 59 161 2.6 4.3 0.00 0.00 0.00 69 1018.7
20260902091006 58 161 3.5 4.3 0.00 0.00 0.00 70 1018.7
20260902090504 58 161 2.6 2.6 0.00 0.00 0.00 71 1018.8
20260902090006 58 161 1.7 3.5 0.00 0.00 0.00 71 1018.8
20260902090002 58 161 0.9 3.5 0.00 0.00 0.00 71 1003.7
20260902085503 58 161 1.7 2.6 0.00 0.00 0.00 72 1018.8
20260902085005 58 161 0.9 2.6 0.00 0.00 0.00 73 1018.8
20260902084602 59 161 1.7 2.6 0.00 0.00 0.00 71 1003.7
20260902084500 59 161 1.7 3.5 0.00 0.00 0.00 71 1018.8
20260902084005 59 161 0.0 5.2 0.00 0.00 0.00 72 1018.8
20260902083503 59 161 4.3 5.2 0.00 0.00 0.00 72 1018.8
20260902083001 59 161 2.6 4.3 0.00 0.00 0.00 72 1003.7
20260902082503 59 161 1.7 4.3 0.00 0.00 0.00 71 1018.8
20260902082005 59 161 2.6 3.5 0.00 0.00 0.00 72 1018.8
20260902081504 59 161 0.9 4.3 0.00 0.00 0.00 72 1018.8
20260902081005 59 161 1.7 4.3 0.00 0.00 0.00 72 1018.9
20260902080503 59 161 2.6 4.3 0.00 0.00 0.00 72 1018.9
20260902080007 59 161 1.7 2.6 0.00 0.00 0.00 72 1019.0
20260902080002 59 161 0.9 2.6 0.00 0.00 0.00 72 1003.9
20260902075504 59 161 1.7 1.7 0.00 0.00 0.00 71 1019.0
20260902075005 60 161 0.9 2.6 0.00 0.00 0.00 71 1019.1
20260902074503 59 161 1.7 2.6 0.00 0.00 0.00 72 1019.1
20260902074004 59 161 1.7 2.6 0.00 0.00 0.00 73 1019.2
20260902073503 59 161 1.7 3.5 0.00 0.00 0.00 73 1019.2
20260902073005 60 161 1.7 4.3 0.00 0.00 0.00 72 1019.2
20260902073002 60 161 0.9 4.3 0.00 0.00 0.00 72 1004.0
20260902072504 60 161 0.9 4.3 0.00 0.00 0.00 71 1019.1
20260902072005 61 161 0.9 5.2 0.00 0.00 0.00 71 1019.1
20260902071508 60 161 1.7 7.0 0.00 0.00 0.00 71 1004.0
20260902071504 60 161 1.7 7.0 0.00 0.00 0.00 71 1019.2
20260902071004 60 158 5.2 7.0 0.00 0.00 0.00 71 1019.3
20260902070504 61 180 1.7 4.3 0.00 0.00 0.00 70 1019.2